Regional Weather Roundup
Issued by NWS

Home | Current Version | Previous Version | Graphics & Text | Print | Product List | Glossary On
Versions: 1 2 3 4 5 6 7 8 9 10 11 12 13 14 15 16 17 18 19 20 21 22 23 24 25 26 27
000
ASUS45 KPSR 201810
RWRAZ

ARIZONA HOURLY REGIONAL WEATHER ROUNDUP
NATIONAL WEATHER SERVICE PHOENIX AZ
1100 AM MST FRI JAN 20 2017

NOTE: FAIR INDICATES FEW OR NO CLOUDS BELOW 12,000 FEET WITH NO
SIGNIFICANT WEATHER AND/OR OBSTRUCTIONS TO VISIBILITY.

AZZ001>003-036-201900-
NORTHWEST ARIZONA

CITY           SKY/WX    TMP DP  RH WIND       PRES   REMARKS
BULLHEAD CITY  CLOUDY    50  45  81 S8        29.69F
KINGMAN        CLOUDY    43  33  68 S15       29.68F
6HR MIN TEMP:  39; 6HR MAX TEMP:  45;

$$

AZZ004>008-015-016-018-201900-
NORTH CENTRAL ARIZONA

CITY           SKY/WX    TMP DP  RH WIND       PRES   REMARKS
GRAND CANYON   LGT SNOW  30  29  96 SW13G24   29.69R FOG     WCI  20
6HR MIN TEMP:  28; 6HR MAX TEMP:  30; 6HR PCP:  0.01;

WILLIAMS       MIX PCPN  30  25  80 S15G23    29.69R WCI  19
PRESCOTT       CLOUDY    37  34  89 S10G21    29.75F WCI  30
6HR MIN TEMP:  34; 6HR MAX TEMP:  37; 6HR PCP: TRACE;

FLAGSTAFF      LGT SNOW  28  27  96 SW21G26   29.71R FOG     WCI  15
6HR MIN TEMP:  27; 6HR MAX TEMP:  28; 6HR PCP: TRACE;

PAYSON         CLOUDY    37  34  87 VRB7      29.83R WCI  32
PAGE           CLOUDY    40  27  59 N3        29.66S
6HR MIN TEMP:  34; 6HR MAX TEMP:  40;

$$

AZZ009>014-017-201900-
NORTHEAST ARIZONA

CITY           SKY/WX    TMP DP  RH WIND       PRES   REMARKS
WINSLOW        CLOUDY    42  30  62 SE12      29.73S
6HR MIN TEMP:  33; 6HR MAX TEMP:  42;

SAINT JOHNS    CLOUDY    39  32  76 VRB5      29.73F
6HR MIN TEMP:  33; 6HR MAX TEMP:  39;

SHOW LOW       LGT RAIN  32  28  86 S17       29.75F WCI  21
$$

AZZ023-201900-
GREATER PHOENIX AREA

CITY           SKY/WX    TMP DP  RH WIND       PRES   REMARKS
PHOENIX        CLOUDY    52  45  77 SE8       29.81S
6HR MIN TEMP:  48; 6HR MAX TEMP:  52;

BUCKEYE        CLOUDY    52  50  93 E6        29.81F
GLENDALE       CLOUDY    50  50 100 CALM      29.83S
LUKE AFB       PTSUNNY   50  50 100 N2        29.80S
6HR MIN TEMP:  44; 6HR MAX TEMP:  50;

DEER VALLEY    CLOUDY    50  48  93 SE5       29.81S
6HR MIN TEMP:  47; 6HR MAX TEMP:  50;

SCOTTSDALE     CLOUDY    51  46  83 SE6       29.83R
6HR MIN TEMP:  46; 6HR MAX TEMP:  51; 6HR PCP: TRACE;

MESA-GATEWAY   CLOUDY    50  46  87 SE9       29.85R
CHANDLER       CLOUDY    52  46  82 SE9       29.84R
$$

AZZ027-028-201900-
SOUTHWEST MARICOPA COUNTY AND PINAL COUNTY

CITY           SKY/WX    TMP DP  RH WIND       PRES   REMARKS
CASA GRANDE    CLOUDY    50  47  89 SE8       29.84F
6HR MIN TEMP:  48; 6HR MAX TEMP:  51; 6HR PCP:  0.10;

$$

AZZ503-504-507>509-201900-
SOUTHEAST ARIZONA

CITY           SKY/WX    TMP DP  RH WIND       PRES   REMARKS
TUCSON         CLOUDY    54  40  59 S17       29.88R
6HR MIN TEMP:  50; 6HR MAX TEMP:  54; 6HR PCP: TRACE;

DAVIS-MONTHAN  CLOUDY    52  42  67 S14       29.87R
6HR MIN TEMP:  47; 6HR MAX TEMP:  52; 6HR PCP:  0.01;

RYAN FIELD     PTSUNNY   55  43  62 S12       29.88R
NOGALES        CLOUDY    49  38  65 S15       29.90S
6HR MIN TEMP:  43; 6HR MAX TEMP:  50;

SIERRA VISTA   CLOUDY    48  31  52 CALM      29.88S
6HR MIN TEMP:  40; 6HR MAX TEMP:  50;

DOUGLAS        CLOUDY    48  36  63 S17       29.89F
6HR MIN TEMP:  33; 6HR MAX TEMP:  50;

SAFFORD        CLOUDY    52  38  58 SE8       29.81F
6HR MIN TEMP:  37; 6HR MAX TEMP:  53;

$$

AZZ020-021-025-026-031-201900-
SOUTHWEST ARIZONA

CITY           SKY/WX    TMP DP  RH WIND       PRES   REMARKS
YUMA           DRIZZLE   57  44  62 S10       29.76F
6HR MIN TEMP:  48; 6HR MAX TEMP:  58; 6HR PCP: TRACE;

$$

CAZ031-033-041-043-047-048-061-201900-
SOUTHERN CALIFORNIA

CITY           SKY/WX    TMP DP  RH WIND       PRES   REMARKS
DOWNTOWN L.A.  LGT RAIN  54  52  93 VRB6      29.66F FOG
6HR MIN TEMP:  52; 6HR MAX TEMP:  54; 6HR PCP:  0.38;

L.A. AIRPORT   LGT RAIN  54  52  93 SE13G21   29.65F FOG
6HR MIN TEMP:  52; 6HR MAX TEMP:  54; 6HR PCP:  0.37;

SAN DIEGO      RAIN      56  50  80 S12G23    29.83S
6HR MIN TEMP:  55; 6HR MAX TEMP:  58; 6HR PCP:  0.28;

BURBANK        RAIN      49  47  93 SE15G26   29.60F FOG
6HR MIN TEMP:  49; 6HR MAX TEMP:  50; 6HR PCP:  0.31;

ONTARIO        LGT RAIN  49  48  97 CALM      29.68F FOG
6HR MIN TEMP:  48; 6HR MAX TEMP:  50; 6HR PCP:  0.36;

PALM SPRINGS   LGT RAIN  56  46  69 E6        29.68F
6HR MIN TEMP:  47; 6HR MAX TEMP:  56; 6HR PCP: TRACE;

EL CENTRO NAS  CLOUDY    61  42  49 SE3       29.74F
6HR MIN TEMP:  55; 6HR MAX TEMP:  61;

IMPERIAL       CLOUDY    58  46  64 SE5       29.73F
6HR MIN TEMP:  53; 6HR MAX TEMP:  58;

BLYTHE         CLOUDY    55  43  63 S13       29.73F
6HR MIN TEMP:  49; 6HR MAX TEMP:  56;

NEEDLES        LGT RAIN  54  42  64 S12       29.69F
6HR MIN TEMP:  49; 6HR MAX TEMP:  54; 6HR PCP: TRACE;

$$

NVZ020-UTZ003-201900-
SOUTHERN NEVADA-UTAH

CITY           SKY/WX    TMP DP  RH WIND       PRES   REMARKS
LAS VEGAS      LGT RAIN  47  39  74 SE10      29.58F
6HR MIN TEMP:  47; 6HR MAX TEMP:  50; 6HR PCP: TRACE;

SALT LAKE CITY PTSUNNY   35  32  88 SE12      29.55F FOG     WCI  27
6HR MIN TEMP:  29; 6HR MAX TEMP:  35; 6HR PCP:  0.02;

$$

NMZ009-TXZ055-201900-
NEW MEXICO-WEST TEXAS

CITY           SKY/WX    TMP DP  RH WIND       PRES   REMARKS
ALBUQUERQUE    CLOUDY    40  30  67 SW13      29.76F WCI  32
6HR MIN TEMP:  33; 6HR MAX TEMP:  41; 6HR PCP: TRACE;

EL PASO        PTSUNNY   53  24  32 W13       29.86F
6HR MIN TEMP:  38; 6HR MAX TEMP:  53;

$$


........................KEY........................
SKY/WX - SKY CONDITION/WEATHER
TMP    - TEMPERATURE IN FAHRENHEIT
DP     - DEW POINT IN FAHRENHEIT
RH     - RELATIVE HUMIDITY IN PERCENT
WIND   - DIRECTION AND SPEED IN MILES PER HOUR (MPH)
VRB    - VARIABLE WIND DIRECTION
PRES   - MEAN SEA LEVEL PRESSURE IN INCHES OF MERCURY
         F - FALLING PRESSURE   R - RISING PRESSURE
         S - STEADY PRESSURE
VSB    - VISIBILITY IN MILES
HX     - HEAT INDEX IN FAHRENHEIT
WCI    - WIND CHILL INDEX IN FAHRENHEIT
TC     - TEMPERATURE IN CELSIUS WHICH IS ALSO KNOWN AS
         TEMPERATURE IN CENTIGRADE
AFB    - AIR FORCE BASE
         LUKE AFB IS LUKE AIR FORCE BASE
         DAVIS-MONTHAN IS DAVIS-MONTHAN AIR FORCE BASE
NAS    - NAVAL AIR STATION
         EL CENTRO NAS IS EL CENTRO NAVAL AIR STATION
N/A    - NOT AVAILABLE





USA.gov is the U.S. government's official web portal to all federal, state and local government web resources and services.